This is the latest recevied weather packets stored in our database for station/object KA1AL. If no packets are shown the sender has not sent any weather packets the latest 10 day(s).
| Time | Temp. | Humidity | Pressure | Rain* | Wind** | Luminosity | Snow |
|---|---|---|---|---|---|---|---|
| 1777406049 | 17.22° C | 44% | 1019.7 hPa | 0 mm | - | 495 W/m² | - |
| 1777405746 | 17.22° C | 46% | 1019.7 hPa | 0 mm | - | 509 W/m² | - |
| 1777405442 | 17.78° C | 46% | 1019.9 hPa | 0 mm | - | 519 W/m² | - |
| 1777405140 | 17.22° C | 44% | 1019.7 hPa | 0 mm | - | 529 W/m² | - |
| 1777404838 | 17.22° C | 43% | 1019.8 hPa | 0 mm | - | 532 W/m² | - |
| 1777404535 | 17.22° C | 44% | 1019.9 hPa | 0 mm | - | 537 W/m² | - |
| 1777404230 | 16.67° C | 44% | 1020 hPa | 0 mm | - | 549 W/m² | - |
| 1777403927 | 16.67° C | 45% | 1019.9 hPa | 0 mm | - | 557 W/m² | - |
| 1777403626 | 17.22° C | 43% | 1020.3 hPa | 0 mm | - | 565 W/m² | - |
| 1777403321 | 17.22° C | 41% | 1020.5 hPa | 0 mm | - | 579 W/m² | - |
| 1777403016 | 16.67° C | 42% | 1020.6 hPa | 0 mm | - | 550 W/m² | - |
| 1777402711 | 17.22° C | 42% | 1020.4 hPa | 0 mm | - | 591 W/m² | - |
| 1777402412 | 17.22° C | 47% | 1020.4 hPa | 0 mm | - | 596 W/m² | - |
| 1777402110 | 16.67° C | 47% | 1020.6 hPa | 0 mm | - | 593 W/m² | - |
| 1777401806 | 16.67° C | 46% | 1020.6 hPa | 0 mm | - | 578 W/m² | - |
| 1777401505 | 16.67° C | 51% | 1020.8 hPa | 0 mm | - | 586 W/m² | - |
| 1777401201 | 16.67° C | 48% | 1020.6 hPa | 0 mm | - | 601 W/m² | - |
| 1777400897 | 16.67° C | 49% | 1020.9 hPa | 0 mm | - | 612 W/m² | - |
| 1777400593 | 16.11° C | 47% | 1020.9 hPa | 0 mm | - | 608 W/m² | - |
| 1777400291 | 16.11° C | 50% | 1020.8 hPa | 0 mm | - | 609 W/m² | - |
| 1777399986 | 16.67° C | 49% | 1020.9 hPa | 0 mm | - | 618 W/m² | - |
| 1777399683 | 16.11° C | 51% | 1021.1 hPa | 0 mm | - | 611 W/m² | - |
| 1777399380 | 16.11° C | 55% | 1021.2 hPa | 0 mm | - | 626 W/m² | - |
| 1777399078 | 16.11° C | 51% | 1021.2 hPa | 0 mm | - | 635 W/m² | - |
| 1777398775 | 16.11° C | 54% | 1021 hPa | 0 mm | - | 645 W/m² | - |
* Rain latest hour (hover to see other rain measurements)
** Current wind speed in m/s (hover to see current wind gust speed)